Rome, NY

8:56 AM EDT on August 23, 2017 (GMT -0400)
Griffiss

Weather History for KRME - November, 2011

Change the Weather History Date:

Thursday, November 17, 2011

  Actual Average Record
Temperature  
Mean Temperature 34 °F -  
Max Temperature 39 °F 44 °F 64 °F (1987)
Min Temperature 30 °F 31 °F 16 °F (1980)
Degree Days  
Heating Degree Days 30    
Moisture  
Dew Point 30 °F    
Average Humidity 89    
Maximum Humidity 100    
Minimum Humidity 70    
Precipitation  
Precipitation 0.07 in - - ()
Sea Level Pressure  
Sea Level Pressure 29.96 in    
Wind  
Wind Speed 8 mph (WNW)    
Max Wind Speed 20 mph    
Max Gust Speed 28 mph    
Visibility 4 miles    
Events Fog , Rain , Snow    
Averages and records for this station are not official NWS values.
T = Trace of Precipitation, MM = Missing Value Source: NWS Daily Summary

Daily Weather History Graph

Daily Weather History Graph

Search for Another Location

Airport or City:

Trip Planner

Search our weather history database for the weather conditions in past years. The results will help you decide how hot, cold, wet, or windy it might be!

Date:

Astronomy

Nov. 17, 2011 Rise Set
Actual Time 6:56 AM EST 4:35 PM EST
Civil Twilight 6:25 AM EST 5:06 PM EST
Nautical Twilight 5:51 AM EST 5:41 PM EST
Astronomical Twilight 5:17 AM EST 6:15 PM EST
Moon 10:57 PM EST (11/17) 12:01 PM EST (11/17)
Length of Visible Light 10h 40m
Length of Day
9h 39m
Waning Gibbous, 60% of the Moon is Illuminated
Nov 17
Waning Gibbous
Nov 18
Last Quarter
Nov 25
New
Dec 2
First Quarter
Dec 10
Full

Hourly Weather History & Observations

Time (EST) Temp. Windchill Dew Point Humidity Pressure Visibility Wind Dir Wind Speed Gust Speed Precip Events Conditions
12:53 AM 36.0 °F 31.1 °F 32.0 °F 86% 29.90 in 10.0 mi NW 5.8 mph - N/A   Clear
1:53 AM 36.0 °F 33.3 °F 32.0 °F 86% 29.91 in 10.0 mi NNW 3.5 mph - N/A   Clear
2:53 AM 34.0 °F - 32.0 °F 92% 29.92 in 10.0 mi Calm Calm - N/A   Clear
3:53 AM 32.0 °F - 30.9 °F 96% 29.92 in 10.0 mi Calm Calm - N/A   Mostly Cloudy
4:53 AM 33.1 °F - 32.0 °F 96% 29.92 in 10.0 mi Calm Calm - N/A   Overcast
5:53 AM 34.0 °F - 33.1 °F 96% 29.93 in 10.0 mi Calm Calm - N/A   Overcast
6:53 AM 35.1 °F - 33.1 °F 92% 29.92 in 10.0 mi Calm Calm - N/A   Mostly Cloudy
7:53 AM 34.0 °F - 33.1 °F 96% 29.93 in 10.0 mi Calm Calm - N/A   Partly Cloudy
8:53 AM 36.0 °F - 34.0 °F 93% 29.93 in 10.0 mi Calm Calm - N/A   Overcast
10:53 AM 39.9 °F 32.5 °F 32.0 °F 73% 29.94 in 10.0 mi West 12.7 mph - N/A   Overcast
12:53 PM 39.0 °F 31.8 °F 30.0 °F 70% 29.89 in 9.0 mi NW 11.5 mph 20.7 mph 0.00 in Rain Light Rain
1:53 PM 37.9 °F 28.5 °F 32.0 °F 79% 29.89 in 10.0 mi NW 17.3 mph - 0.00 in   Overcast
2:42 PM 35.6 °F 24.8 °F 30.2 °F 81% 29.89 in 1.2 mi NW 19.6 mph - 0.00 in Snow Light Snow
2:46 PM 33.8 °F 24.3 °F 30.2 °F 87% 29.89 in 0.5 mi WNW 13.8 mph - 0.00 in Fog , Snow Snow
2:53 PM 35.1 °F 26.9 °F 32.0 °F 89% 29.90 in 3.0 mi WNW 11.5 mph - 0.00 in Snow Light Snow
2:56 PM 35.6 °F 28.6 °F 32.0 °F 87% 29.89 in 3.0 mi WNW 9.2 mph - 0.00 in Snow Light Snow
3:53 PM 36.0 °F 26.0 °F 28.0 °F 73% 29.91 in 3.0 mi WNW 17.3 mph 27.6 mph 0.01 in   Haze
4:53 PM 33.1 °F 27.7 °F 28.0 °F 82% 29.91 in 10.0 mi WNW 5.8 mph - N/A   Partly Cloudy
5:53 PM 30.9 °F 26.2 °F 27.0 °F 85% 29.94 in 10.0 mi WNW 4.6 mph - N/A   Scattered Clouds
6:53 PM 30.0 °F 25.2 °F 25.0 °F 82% 29.95 in 10.0 mi WNW 4.6 mph - N/A   Clear
7:26 PM 32.0 °F 22.1 °F 26.6 °F 80% 29.96 in 1.5 mi West 13.8 mph - 0.00 in Snow Light Snow
7:46 PM 32.0 °F 23.6 °F 28.4 °F 87% 29.96 in 4.0 mi West 10.4 mph - 0.00 in Snow Light Snow
7:53 PM 32.0 °F 24.8 °F 28.9 °F 88% 29.98 in 4.0 mi West 8.1 mph - 0.00 in Snow Light Snow
7:57 PM 32.0 °F 24.2 °F 28.4 °F 87% 29.97 in 1.5 mi West 9.2 mph - 0.00 in Snow Light Snow
8:07 PM 32.0 °F 24.2 °F 30.2 °F 93% 29.97 in 2.0 mi West 9.2 mph - 0.00 in Snow Light Snow
8:23 PM 32.0 °F 24.2 °F 30.2 °F 93% 29.97 in 4.0 mi WNW 9.2 mph - 0.00 in Snow Light Snow
8:28 PM 32.0 °F 22.1 °F 30.2 °F 93% 29.98 in 1.5 mi WNW 13.8 mph - 0.00 in Snow Light Snow
8:30 PM 32.0 °F 20.1 °F 30.2 °F 93% 29.98 in 0.8 mi WNW 19.6 mph 25.3 mph 0.00 in Snow Light Snow
8:40 PM 32.0 °F 22.5 °F 30.2 °F 93% 29.98 in 0.2 mi WNW 12.7 mph 27.6 mph 0.00 in Fog , Snow Heavy Snow
8:48 PM 30.2 °F 19.8 °F 30.2 °F 100% 29.98 in 0.5 mi WNW 13.8 mph 20.7 mph 0.00 in Fog , Snow Snow
8:49 PM 32.0 °F 22.1 °F 30.0 °F 92% 29.99 in 0.5 mi WNW 13.8 mph 20.7 mph 0.00 in Fog , Snow Snow
9:06 PM 32.0 °F 25.6 °F 30.2 °F 93% 29.98 in 1.0 mi West 6.9 mph - 0.01 in Snow Light Snow
9:27 PM 32.0 °F 24.8 °F 30.2 °F 93% 29.98 in 2.0 mi West 8.1 mph - 0.01 in Snow Light Snow
9:35 PM 32.0 °F 24.8 °F 30.2 °F 93% 29.98 in 4.0 mi WNW 8.1 mph - 0.01 in   Overcast
9:41 PM 32.0 °F 25.6 °F 30.2 °F 93% 29.98 in 1.8 mi West 6.9 mph - 0.01 in Snow Light Snow
9:53 PM 32.0 °F 25.6 °F 30.9 °F 96% 29.99 in 1.0 mi West 6.9 mph - 0.01 in Snow Light Snow
9:56 PM 32.0 °F 24.8 °F 30.2 °F 93% 29.98 in 1.2 mi WSW 8.1 mph - 0.00 in Snow Light Snow
10:25 PM 33.8 °F 23.5 °F 28.4 °F 81% 29.99 in 0.8 mi WSW 16.1 mph 20.7 mph 0.00 in Snow Light Snow
10:29 PM 32.0 °F 20.5 °F 30.2 °F 93% 29.99 in 0.2 mi West 18.4 mph 26.5 mph 0.01 in Fog , Snow Heavy Snow
10:37 PM 32.0 °F 20.8 °F 30.2 °F 93% 29.99 in 0.2 mi West 17.3 mph 26.5 mph 0.01 in Fog , Snow Heavy Snow
10:53 PM 32.0 °F 21.6 °F 30.9 °F 96% 30.01 in 0.8 mi West 15.0 mph 21.9 mph 0.02 in Snow Light Snow
11:05 PM 32.0 °F 21.6 °F 30.2 °F 93% 30.00 in 0.5 mi WNW 15.0 mph 24.2 mph 0.00 in Fog , Snow Snow
11:20 PM 32.0 °F 23.6 °F 30.2 °F 93% 30.00 in 2.5 mi WNW 10.4 mph - 0.01 in Snow Light Snow
11:24 PM 32.0 °F 23.0 °F 30.2 °F 93% 30.00 in 1.5 mi West 11.5 mph - 0.01 in Snow Light Snow
11:33 PM 32.0 °F 22.5 °F 30.2 °F 93% 30.00 in 0.2 mi West 12.7 mph 19.6 mph 0.02 in Fog , Snow Heavy Snow
11:51 PM 32.0 °F 26.4 °F 30.2 °F 93% 30.01 in 0.5 mi West 5.8 mph - 0.03 in Fog , Snow Snow
11:53 PM 32.0 °F 25.6 °F 30.9 °F 96% 30.02 in 0.5 mi West 6.9 mph - 0.03 in Fog , Snow Snow